STARLINK-36688, 67656

Orbit data source: Space-Track

STARLINK-36688, 67656 is a payload satellite owned by SpaceX/Seattle (US) in SSO that was launched on Mon, 02 Feb 2026 UTC via an FALCON 9 launch vehicle from the Air Force Western Test Range (AFWTR). Payload-class satellites include a variety of spacecraft equipped with specific instruments for various scientific and technological missions. These include communications satellites like Starlink; space stations such as the ISS; scientific satellites like the Hubble; Earth observation satellites from companies like Planet Labs, Umbra, and HawkEye 360; GPS; miniature CubeSats for education and research; and military/defense satellites.

Loading next visibility...
Identifier
67656, 2026-022J
Orbit
SSO
Country
Flag of USUS
Related business
Manufacturer
SpaceX/Seattle
Mission
Operational spacecraft
Bus & Motor
STARLINK V2MO, Unknown motor
Mass
575 kg wet, ~530 kg dry
Launch date (UTC)
2026-02-02 (2 months ago)
Launch vehicle
FALCON 9
Launch site
Air Force Western Test Range (AFWTR)
Object type
Payload
Rocket body
Debris
Shape & HBR
Unknown shape, 17.7 m
Radar Cross Section
RCS unknown

Expand to show TLE details & history
Last TLE update: 6 hours ago

TLE from 6 hours ago
0 STARLINK-36688
1 67656U 26022J   26095.55033010  .00026652  00000-0  82446-3 0  9999
2 67656  97.2847 129.5750 0001393  86.8925 273.2477 15.33463888  9697
Epoch: 2026-04-05T13:12Z
TLE epoch observation values (Epoch: 2026-04-05T13:12:28.520Z)
Latitude
-0.00005°
Longitude
97.60203°
Altitude
468.545 km
Speed
7.632 km/s
True Right ascension
08h 38m 18s
True Declination
0° 00' 00"
Sunlit
Object was in full shadow at epoch
Visualization orbit readout
Latitude
Unknown
Longitude
Unknown
Altitude
Unknown
Speed
Unknown
Apparent Right ascension
Unknown
Apparent Declination
Unknown
Sunlit
N/A
Visualization observer readout
Local Sidereal Time
01:33:46
Azimuth
Unknown
Elevation
Unknown
Doppler factor
Unknown
Orbital elements
Apogee altitude
463.383 km
Perigee altitude
461.477 km
Semi-major axis
6,840.567 km
Eccentricity
0.00014
Inclination
97.2847°
RAAN
129.575°
Arg. of periapsis
86.8925°
True anomaly
273.23176°
Mean anomaly
273.2477°
Eccentric anomaly
273.23973°
Mean motion
3.83623 °/min
Orbital period
93.84 mins
BSTAR
0.00082446
Loading maneuver chart data...
Computing Atmospheric mass density...
Loading historical data...
Loading historical data...
Loading historical data...
Loading historical data...
Loading historical data...
Loading historical data...
Loading historical data...

Documentation

Showing up to 5 results
|